Location: Neuvy-Saint-S�pulchre
(46.5950°N, 1.8122°E)
Time: 22:54:36
(UTC+02:00)

ISS - Visible Passes

Search period start: 28 May 2023 00:00
Search period end: 07 June 2023 00:00
Orbit: 412 x 419 km, 51.6° (Epoch: 28 May)

Date Brightness Start Highest point End Pass type
(mag) Time Alt. Az. Time Alt. Az. Time Alt. Az.
28 May -2.9 22:47:13 10° WNW 22:50:21 38° SW 22:52:34 17° SSE visible
29 May -1.2 23:37:39 10° SW 23:37:57 10° SW 23:38:15 10° SW visible
30 May -1.6 22:47:20 10° W 22:49:33 17° SW 22:51:45 10° S visible
